Starlink 33678

operational
NORAD ID: 63509 Int'l Des: 2025-071 Owner: SPXS Country: US Constellation: starlink
LEOCIRCULAR

Starlink 33678について

説明を読み込み中...

リアルタイム位置

3D地球を読み込み中...

次回通過

高度履歴

Altitude vs Time

uPlot chart will show altitude changes over time

軌道要素

1 63509U 25071S 25257.36894099 .00028909 00000-0 98391-3 0 9998
2 63509 53.1559 238.9308 0001103 84.1839 275.9287 15.30215862 25509
Epoch: Sep 14, 2025 • Age: 25 hours

現在のステータス

高度 482.0 km
速度 7.62 km/s
衛星直下点 -23.32°S, 73.66°E
打ち上げ日 Apr 7, 2025
運用期間 0.4 years
タイプ internet

技術仕様

分類 Payload
質量 575.00 kg
乾燥質量 530.00 kg
総質量 575.00 kg
長さ 0.30 m
直径 4.10 m
スパン 29.00 m
形状 Box + pan
製造者 SPXS
バスタイプ Starlink V2MO
フェーズステータス In Orbit
所有者/国 SPXS/US

大規模コンステレーション

Loading constellations...